TITAN 3C TRANSTAGE DEB, 26765

Orbit data source: Space-Track

TITAN 3C TRANSTAGE DEB, 26765 is space debris in HEO originally from a launch on Tue, 21 Dec 1965 UTC launched from the Air Force Eastern Test Range (AFETR). Debris objects in space refer to the collection of defunct objects orbiting the Earth. Examples of debris include non-operational satellites, rocket bodies, and fragments generated from explosions, collisions, or faulty payload assembly.

Loading next visibility...
Identifier
26765, 1965-108AU
Orbit
HEO
Country
Flag of USUS
Related business
Manufacturer
Unknown
Mission
Spacecraft
Bus & Motor
Unknown
Mass
Unknown
Launch date (UTC)
1965-12-21 (60 years ago)
Launch vehicle
Unknown
Launch site
Air Force Eastern Test Range (AFETR)
Object type
Payload
Rocket body
Debris
Shape & HBR
Unknown shape, 0.1 m
Radar Cross Section
Medium (>0.1 m² and <1 m²)

Expand to show TLE details & history
Last TLE update: 2 days ago

TLE from 2 days ago
0 TITAN 3C TRANSTAGE DEB
1 26765U 65108AU  25294.76268133 -.00000375  00000-0 -11174-1 0  9996
2 26765  26.9603  60.0146 6705727  82.8458 330.6534  2.68982285 15628
Epoch: 2025-10-21T18:18Z
TLE epoch observation values (Epoch: 2025-10-21T18:18:15.666Z)
Latitude
-11.54377°
Longitude
91.29971°
Altitude
9,036.59 km
Speed
5.785 km/s
True Right ascension
02h 25m 14s
True Declination
-11° 30' 46"
Sunlit
Object was in partial shadow at epoch
Visualization orbit readout
Latitude
Unknown
Longitude
Unknown
Altitude
Unknown
Speed
Unknown
Apparent Right ascension
Unknown
Apparent Declination
Unknown
Sunlit
N/A
Visualization observer readout
Local Sidereal Time
10:36:08
Azimuth
Unknown
Elevation
Unknown
Doppler factor
Unknown
Orbital elements
Apogee altitude
30,112.909 km
Perigee altitude
817.687 km
Semi-major axis
21,843.435 km
Eccentricity
0.67057
Inclination
26.9603°
RAAN
60.0146°
Arg. of periapsis
82.8458°
True anomaly
250.97957°
Mean anomaly
330.6534°
Eccentric anomaly
296.17138°
Mean motion
0.6723 °/min
Orbital period
535.48 mins
BSTAR
-0.011174
Loading maneuver chart data...
Computing Atmospheric mass density...

Documentation

Showing up to 5 results
|